TimeCST,TemperatureF,Dew PointF,Humidity,Sea Level PressureIn,VisibilityMPH,Wind Direction,Wind SpeedMPH,Gust SpeedMPH,PrecipitationIn,Events,Conditions,WindDirDegrees,DateUTC
12:53 AM,46.0,43.0,89,29.91,6.0,North,6.9,-,0.00,Rain,Light Rain,10,2012-12-07 06:53:00
1:53 AM,46.0,43.0,89,29.91,5.0,NNE,6.9,-,0.01,,Overcast,30,2012-12-07 07:53:00
2:07 AM,46.4,44.6,93,29.90,5.0,NE,5.8,-,0.00,Rain,Light Rain,40,2012-12-07 08:07:00
2:26 AM,46.4,44.6,93,29.90,4.0,North,5.8,-,0.00,Rain,Light Rain,10,2012-12-07 08:26:00
2:41 AM,44.6,44.6,100,29.90,3.0,North,5.8,-,0.01,,Overcast,10,2012-12-07 08:41:00
2:53 AM,45.0,44.1,97,29.91,3.0,North,6.9,-,0.01,,Overcast,10,2012-12-07 08:53:00
3:53 AM,45.0,43.0,93,29.91,4.0,North,8.1,-,N/A,,Overcast,10,2012-12-07 09:53:00
4:53 AM,44.1,42.1,93,29.91,6.0,North,10.4,-,N/A,,Overcast,10,2012-12-07 10:53:00
5:53 AM,43.0,41.0,93,29.90,5.0,NNE,10.4,-,N/A,,Overcast,20,2012-12-07 11:53:00
6:05 AM,42.8,41.0,93,29.89,5.0,NNE,8.1,-,N/A,,Overcast,30,2012-12-07 12:05:00
6:53 AM,43.0,41.0,93,29.91,7.0,ENE,6.9,-,N/A,,Overcast,60,2012-12-07 12:53:00
7:53 AM,44.1,41.0,89,29.91,8.0,NE,5.8,-,N/A,,Overcast,50,2012-12-07 13:53:00
8:53 AM,44.1,41.0,89,29.92,7.0,ENE,6.9,-,N/A,,Overcast,70,2012-12-07 14:53:00
9:53 AM,45.0,42.1,90,29.92,7.0,Calm,Calm,-,N/A,,Overcast,0,2012-12-07 15:53:00
10:53 AM,46.0,42.1,86,29.91,6.0,NNE,4.6,-,N/A,,Overcast,30,2012-12-07 16:53:00
11:53 AM,46.0,42.1,86,29.90,6.0,NNE,4.6,-,N/A,,Overcast,30,2012-12-07 17:53:00
12:53 PM,46.9,42.1,83,29.86,6.0,East,4.6,-,N/A,,Haze,80,2012-12-07 18:53:00
1:27 PM,46.4,42.8,87,29.85,6.0,Calm,Calm,-,N/A,,Haze,0,2012-12-07 19:27:00
1:53 PM,48.0,42.1,80,29.86,6.0,North,3.5,-,N/A,,Haze,360,2012-12-07 19:53:00
2:53 PM,46.9,42.1,83,29.86,6.0,North,5.8,-,N/A,,Haze,350,2012-12-07 20:53:00
3:53 PM,46.9,42.1,83,29.87,5.0,North,5.8,-,N/A,,Haze,10,2012-12-07 21:53:00
4:53 PM,46.0,43.0,89,29.89,4.0,North,6.9,-,0.00,,Overcast,360,2012-12-07 22:53:00
5:53 PM,46.0,42.1,86,29.89,6.0,NNE,5.8,-,N/A,,Overcast,30,2012-12-07 23:53:00
7:17 PM,44.6,42.8,93,29.89,7.0,NNE,10.4,-,N/A,,Overcast,20,2012-12-08 01:17:00
7:37 PM,44.6,41.0,87,29.90,6.0,North,10.4,-,N/A,,Overcast,360,2012-12-08 01:37:00
7:53 PM,44.1,41.0,89,29.91,6.0,North,11.5,-,N/A,,Mostly Cloudy,10,2012-12-08 01:53:00
8:02 PM,44.6,41.0,87,29.90,7.0,NNE,9.2,-,N/A,,Mostly Cloudy,20,2012-12-08 02:02:00
8:10 PM,44.6,41.0,87,29.90,7.0,North,6.9,-,N/A,,Mostly Cloudy,10,2012-12-08 02:10:00
9:53 PM,42.1,39.9,92,29.91,6.0,ESE,5.8,-,0.00,,Mostly Cloudy,110,2012-12-08 03:53:00
10:27 PM,42.8,39.2,87,29.92,5.0,NW,6.9,-,N/A,,Overcast,320,2012-12-08 04:27:00
10:35 PM,42.8,41.0,93,29.92,5.0,NNW,5.8,-,N/A,,Overcast,330,2012-12-08 04:35:00
10:53 PM,42.1,39.9,92,29.94,5.0,WNW,4.6,-,N/A,,Overcast,290,2012-12-08 04:53:00
11:03 PM,42.8,39.2,87,29.94,6.0,WNW,4.6,-,N/A,,Overcast,290,2012-12-08 05:03:00
11:53 PM,42.1,39.0,89,29.95,7.0,NNW,5.8,-,N/A,,Overcast,340,2012-12-08 05:53:00